Year,Month,Day,Hour,Minute,Value (Times are PST for temperature in C)
2019,02,05,09,05,-3.80
2019,02,05,09,06,-3.80
2019,02,05,09,07,-3.80
2019,02,05,09,08,-3.70
2019,02,05,09,09,-3.60
2019,02,05,09,10,-3.50
2019,02,05,09,11,-3.50
2019,02,05,09,12,-3.40
2019,02,05,09,13,-3.30
2019,02,05,09,14,-3.30
2019,02,05,09,15,-3.20
2019,02,05,09,16,-3.10
2019,02,05,09,17,-3.00
2019,02,05,09,18,-3.00
2019,02,05,09,19,-2.90
2019,02,05,09,20,-2.80
2019,02,05,09,21,-2.80
2019,02,05,09,22,-2.80
2019,02,05,09,23,-2.70
2019,02,05,09,24,-2.70
2019,02,05,09,25,-2.70
2019,02,05,09,26,-2.60
2019,02,05,09,27,-2.50
2019,02,05,09,28,-2.50
2019,02,05,09,29,-2.40
2019,02,05,09,30,-2.30
2019,02,05,09,31,-2.30
2019,02,05,09,32,-2.30
2019,02,05,09,33,-2.20
2019,02,05,09,34,-2.10
2019,02,05,09,35,-2.00
2019,02,05,09,36,-2.00
2019,02,05,09,37,-2.00
2019,02,05,09,38,-1.90
2019,02,05,09,39,-1.90
2019,02,05,09,40,-1.80
2019,02,05,09,41,-1.80
2019,02,05,09,42,-1.70
2019,02,05,09,43,-1.60
2019,02,05,09,44,-1.60
2019,02,05,09,45,-1.60
2019,02,05,09,46,-1.50
2019,02,05,09,47,-1.50
2019,02,05,09,48,-1.50
2019,02,05,09,49,-1.40
2019,02,05,09,50,-1.40
2019,02,05,09,51,-1.40
2019,02,05,09,52,-1.50
2019,02,05,09,53,-1.50
2019,02,05,09,54,-1.50
2019,02,05,09,55,-1.50
2019,02,05,09,56,-1.50
2019,02,05,09,57,-1.40
2019,02,05,09,58,-1.40
2019,02,05,09,59,-1.30
2019,02,05,10,00,-1.20
2019,02,05,10,01,-1.10
2019,02,05,10,02,-1.10
2019,02,05,10,03,-1.00
2019,02,05,10,04,-0.90
2019,02,05,10,05,-0.90
2019,02,05,10,06,-0.90
2019,02,05,10,07,-0.90
2019,02,05,10,08,-0.90
2019,02,05,10,09,-0.90
2019,02,05,10,10,-0.90
2019,02,05,10,11,-0.90
2019,02,05,10,12,-0.90
2019,02,05,10,13,-0.90
2019,02,05,10,14,-0.90
2019,02,05,10,15,-0.90
2019,02,05,10,16,-0.70
2019,02,05,10,17,-0.60
2019,02,05,10,18,-0.60
2019,02,05,10,19,-0.50
2019,02,05,10,20,-0.40
2019,02,05,10,21,-0.40
2019,02,05,10,22,-0.40
2019,02,05,10,23,-0.50
2019,02,05,10,24,-0.60
2019,02,05,10,25,-0.60
2019,02,05,10,26,-0.60
2019,02,05,10,27,-0.50
2019,02,05,10,28,-0.40
2019,02,05,10,29,-0.40
2019,02,05,10,30,-0.40
2019,02,05,10,31,-0.40
2019,02,05,10,32,-0.40
2019,02,05,10,33,-0.50
2019,02,05,10,34,-0.60
2019,02,05,10,35,-0.70
2019,02,05,10,36,-0.70
2019,02,05,10,37,-0.70
2019,02,05,10,38,-0.70
2019,02,05,10,39,-0.60
2019,02,05,10,40,-0.60
2019,02,05,10,41,-0.60
2019,02,05,10,42,-0.50
2019,02,05,10,43,-0.40
2019,02,05,10,44,-0.40
2019,02,05,10,45,-0.40
2019,02,05,10,46,-0.40
2019,02,05,10,47,-0.40
2019,02,05,10,48,-0.40
2019,02,05,10,49,-0.40
2019,02,05,10,50,-0.40
2019,02,05,10,51,-0.30
2019,02,05,10,52,-0.30
2019,02,05,10,53,-0.20
2019,02,05,10,54,-0.10
2019,02,05,10,55,-0.10
2019,02,05,10,56,-0.10
2019,02,05,10,57,-0.10
2019,02,05,10,58,-0.10
2019,02,05,10,59,-0.10
2019,02,05,11,00,-0.10
2019,02,05,11,01,-0.20
2019,02,05,11,02,-0.30
2019,02,05,11,03,-0.40
2019,02,05,11,04,-0.40
2019,02,05,11,05,-0.40
2019,02,05,11,06,-0.40
2019,02,05,11,07,-0.40
2019,02,05,11,08,-0.40
2019,02,05,11,09,-0.40
2019,02,05,11,10,-0.40
2019,02,05,11,11,-0.40
2019,02,05,11,12,-0.30
2019,02,05,11,13,-0.30
2019,02,05,11,14,-0.20
2019,02,05,11,15,-0.10
2019,02,05,11,16,-0.10
2019,02,05,11,17,-0.10
2019,02,05,11,18,-0.10
2019,02,05,11,19,-0.10
2019,02,05,11,20,-0.10
2019,02,05,11,21,-0.10
2019,02,05,11,22,-0.10
2019,02,05,11,23,-0.10
2019,02,05,11,24,-0.10
2019,02,05,11,25,-0.10
2019,02,05,11,26,-0.20
2019,02,05,11,27,-0.20
2019,02,05,11,28,-0.20
2019,02,05,11,29,-0.20
2019,02,05,11,30,-0.20
2019,02,05,11,31,-0.10
2019,02,05,11,32,-0.10
2019,02,05,11,33,-0.10
2019,02,05,11,34,0.10
2019,02,05,11,35,0.10
2019,02,05,11,36,0.10
2019,02,05,11,37,0.10
2019,02,05,11,38,0.10
2019,02,05,11,39,0.20
2019,02,05,11,40,0.20
2019,02,05,11,41,0.30
2019,02,05,11,42,0.30
2019,02,05,11,43,0.30
2019,02,05,11,44,0.30
2019,02,05,11,45,0.40
2019,02,05,11,46,0.30
2019,02,05,11,47,0.20
2019,02,05,11,48,0.20
2019,02,05,11,49,0.10
2019,02,05,11,50,0.20
2019,02,05,11,51,0.20
2019,02,05,11,52,0.30
2019,02,05,11,53,0.30
2019,02,05,11,54,0.40
2019,02,05,11,55,0.40
2019,02,05,11,56,0.50
2019,02,05,11,57,0.50
2019,02,05,11,58,0.50
2019,02,05,11,59,0.50
2019,02,05,12,00,0.60
2019,02,05,12,01,0.60
2019,02,05,12,02,0.60
2019,02,05,12,03,0.60
2019,02,05,12,04,0.50
2019,02,05,12,05,0.60
2019,02,05,12,06,0.60
2019,02,05,12,07,0.60
2019,02,05,12,08,0.60
2019,02,05,12,09,0.60
2019,02,05,12,10,0.70
2019,02,05,12,11,0.80
2019,02,05,12,12,0.80
2019,02,05,12,13,0.80
2019,02,05,12,14,0.80
2019,02,05,12,15,0.80
2019,02,05,12,16,0.80
2019,02,05,12,17,0.90
2019,02,05,12,18,0.90
2019,02,05,12,19,0.90
2019,02,05,12,20,0.90
2019,02,05,12,21,0.80
2019,02,05,12,22,0.90
2019,02,05,12,23,0.90
2019,02,05,12,24,0.90
2019,02,05,12,25,0.90
2019,02,05,12,26,0.80
2019,02,05,12,27,0.80
2019,02,05,12,28,0.90
2019,02,05,12,29,0.90
2019,02,05,12,30,0.90
2019,02,05,12,31,0.90
2019,02,05,12,32,0.90
2019,02,05,12,33,1.00
2019,02,05,12,34,0.90
2019,02,05,12,35,0.90
2019,02,05,12,36,0.90
2019,02,05,12,37,0.90
2019,02,05,12,38,0.90
2019,02,05,12,39,1.00
2019,02,05,12,40,1.00
2019,02,05,12,41,1.00
2019,02,05,12,42,1.00
2019,02,05,12,43,0.90
2019,02,05,12,44,0.80
2019,02,05,12,45,0.80
2019,02,05,12,46,0.80
2019,02,05,12,47,0.90
2019,02,05,12,48,0.90
2019,02,05,12,49,0.80
2019,02,05,12,50,0.80
2019,02,05,12,51,0.80
2019,02,05,12,52,0.80
2019,02,05,12,53,0.80
2019,02,05,12,54,0.80
2019,02,05,12,55,0.80
2019,02,05,12,56,0.80
2019,02,05,12,57,0.70
2019,02,05,12,58,0.70
2019,02,05,12,59,0.80
2019,02,05,13,00,0.80
2019,02,05,13,01,0.80
2019,02,05,13,02,0.90
2019,02,05,13,03,0.80
2019,02,05,13,04,0.90
2019,02,05,13,05,0.90
2019,02,05,13,06,0.90
2019,02,05,13,07,0.90
2019,02,05,13,08,1.00
2019,02,05,13,09,1.00
2019,02,05,13,10,1.00
2019,02,05,13,11,1.00
2019,02,05,13,12,1.10
2019,02,05,13,13,1.10
2019,02,05,13,14,1.20
2019,02,05,13,15,1.20
2019,02,05,13,16,1.20
2019,02,05,13,17,1.20
2019,02,05,13,18,1.10
2019,02,05,13,19,1.00
2019,02,05,13,20,1.10
2019,02,05,13,21,1.10
2019,02,05,13,22,1.10
2019,02,05,13,23,1.20
2019,02,05,13,24,1.20
2019,02,05,13,25,1.30
2019,02,05,13,26,1.30
2019,02,05,13,27,1.30
2019,02,05,13,28,1.30
2019,02,05,13,29,1.30
2019,02,05,13,30,1.30
2019,02,05,13,31,1.40
2019,02,05,13,32,1.40
2019,02,05,13,33,1.50
2019,02,05,13,34,1.50
2019,02,05,13,35,1.50
2019,02,05,13,36,1.50
2019,02,05,13,37,1.50
2019,02,05,13,38,1.50
2019,02,05,13,39,1.40
2019,02,05,13,40,1.30
2019,02,05,13,41,1.30
2019,02,05,13,42,1.30
2019,02,05,13,43,1.20
2019,02,05,13,44,1.20
2019,02,05,13,45,1.30
2019,02,05,13,46,1.30
2019,02,05,13,47,1.30
2019,02,05,13,48,1.30
2019,02,05,13,49,1.30
2019,02,05,13,50,1.30
2019,02,05,13,51,1.30
2019,02,05,13,52,1.30
2019,02,05,13,53,1.30
2019,02,05,13,54,1.40
2019,02,05,13,55,1.40
2019,02,05,13,56,1.50
2019,02,05,13,57,1.50
2019,02,05,13,58,1.50
2019,02,05,13,59,1.50
2019,02,05,14,00,1.50
2019,02,05,14,01,1.50
2019,02,05,14,02,1.40
2019,02,05,14,03,1.40
2019,02,05,14,04,1.40
2019,02,05,14,05,1.40
2019,02,05,14,06,1.30
2019,02,05,14,07,1.30
2019,02,05,14,08,1.30
2019,02,05,14,09,1.30
2019,02,05,14,10,1.30
2019,02,05,14,11,1.30
2019,02,05,14,12,1.30
2019,02,05,14,13,1.30
2019,02,05,14,14,1.30
2019,02,05,14,15,1.40
2019,02,05,14,16,1.40
2019,02,05,14,17,1.40
2019,02,05,14,18,1.40
2019,02,05,14,19,1.40
2019,02,05,14,20,1.40
2019,02,05,14,21,1.40
2019,02,05,14,22,1.40
2019,02,05,14,23,1.40
2019,02,05,14,24,1.40
2019,02,05,14,25,1.40
2019,02,05,14,26,1.40
2019,02,05,14,27,1.40
2019,02,05,14,28,1.40
2019,02,05,14,29,1.40
2019,02,05,14,30,1.40
2019,02,05,14,31,1.40
2019,02,05,14,32,1.40
2019,02,05,14,33,1.40
2019,02,05,14,34,1.40
2019,02,05,14,35,1.40
2019,02,05,14,36,1.40
2019,02,05,14,37,1.40
2019,02,05,14,38,1.50
2019,02,05,14,39,1.50
2019,02,05,14,40,1.50
2019,02,05,14,41,1.60
2019,02,05,14,42,1.60
2019,02,05,14,43,1.70
2019,02,05,14,44,1.80
2019,02,05,14,45,1.80
2019,02,05,14,46,1.80
2019,02,05,14,47,1.80
2019,02,05,14,48,1.80
2019,02,05,14,49,1.80
2019,02,05,14,50,1.80
2019,02,05,14,51,1.70
2019,02,05,14,52,1.70
2019,02,05,14,53,1.70
2019,02,05,14,54,1.70
2019,02,05,14,55,1.60
2019,02,05,14,56,1.60
2019,02,05,14,57,1.60
2019,02,05,14,58,1.60
2019,02,05,14,59,1.60
2019,02,05,15,00,1.60
2019,02,05,15,01,1.60
2019,02,05,15,02,1.60
2019,02,05,15,03,1.60
2019,02,05,15,04,1.60
2019,02,05,15,05,1.60
2019,02,05,15,06,1.50
2019,02,05,15,07,1.50
2019,02,05,15,08,1.50
2019,02,05,15,09,1.50
2019,02,05,15,10,1.50
2019,02,05,15,11,1.60
2019,02,05,15,12,1.60
2019,02,05,15,13,1.50
2019,02,05,15,14,1.50
2019,02,05,15,15,1.50
2019,02,05,15,16,1.50
2019,02,05,15,17,1.50
2019,02,05,15,18,1.60
2019,02,05,15,19,1.60
2019,02,05,15,20,1.50
2019,02,05,15,21,1.50
2019,02,05,15,22,1.50
2019,02,05,15,23,1.50
2019,02,05,15,24,1.50
2019,02,05,15,25,1.50
2019,02,05,15,26,1.50
2019,02,05,15,27,1.50
2019,02,05,15,28,1.60
2019,02,05,15,29,1.60
2019,02,05,15,30,1.70
2019,02,05,15,31,1.70
2019,02,05,15,32,1.70
2019,02,05,15,33,1.70
2019,02,05,15,34,1.60
2019,02,05,15,35,1.60
2019,02,05,15,36,1.60
2019,02,05,15,37,1.60
2019,02,05,15,38,1.50
2019,02,05,15,39,1.50
2019,02,05,15,40,1.50
2019,02,05,15,41,1.50
2019,02,05,15,42,1.50
2019,02,05,15,43,1.50
2019,02,05,15,44,1.50
2019,02,05,15,45,1.50
2019,02,05,15,46,1.50
2019,02,05,15,47,1.50
2019,02,05,15,48,1.50
2019,02,05,15,49,1.50
2019,02,05,15,50,1.50
2019,02,05,15,51,1.40
2019,02,05,15,52,1.40
2019,02,05,15,53,1.40
2019,02,05,15,54,1.40
2019,02,05,15,55,1.40
2019,02,05,15,56,1.40
2019,02,05,15,57,1.40
2019,02,05,15,58,1.40
2019,02,05,15,59,1.40
2019,02,05,16,00,1.40
2019,02,05,16,01,1.40
2019,02,05,16,02,1.40
2019,02,05,16,03,1.40
2019,02,05,16,04,1.40
2019,02,05,16,05,1.40
2019,02,05,16,06,1.40
2019,02,05,16,07,1.40
2019,02,05,16,08,1.40
2019,02,05,16,09,1.50
2019,02,05,16,10,1.50
2019,02,05,16,11,1.50
2019,02,05,16,12,1.50
2019,02,05,16,13,1.50
2019,02,05,16,14,1.50
2019,02,05,16,15,1.50
2019,02,05,16,16,1.50
2019,02,05,16,17,1.50
2019,02,05,16,18,1.50
2019,02,05,16,19,1.50
2019,02,05,16,20,1.50
2019,02,05,16,21,1.50
2019,02,05,20,36,-3.20
2019,02,05,20,37,-3.20
2019,02,05,20,38,-3.20
2019,02,05,20,39,-3.20
2019,02,05,20,40,-3.30
2019,02,05,20,41,-3.30
2019,02,05,20,42,-3.30
2019,02,05,20,43,-3.30
2019,02,05,20,44,-3.30
2019,02,05,20,45,-3.30
2019,02,05,20,46,-3.30
2019,02,05,20,47,-3.30
2019,02,05,20,48,-3.30
2019,02,05,20,49,-3.30
2019,02,05,20,50,-3.30
2019,02,05,20,51,-3.30
2019,02,05,20,52,-3.30
2019,02,05,20,53,-3.30
2019,02,05,20,54,-3.40
2019,02,05,20,55,-3.40
2019,02,05,20,56,-3.40
2019,02,05,20,57,-3.40
2019,02,05,20,58,-3.40
2019,02,05,20,59,-3.40
2019,02,05,21,00,-3.40
2019,02,05,21,01,-3.50
2019,02,05,21,02,-3.50
2019,02,05,21,03,-3.50
2019,02,05,21,04,-3.60
2019,02,05,21,05,-3.60
2019,02,05,21,06,-3.60
2019,02,05,21,07,-3.60
2019,02,05,21,08,-3.60
2019,02,05,21,09,-3.60
2019,02,05,21,10,-3.60
2019,02,05,21,11,-3.60
2019,02,05,21,12,-3.60
2019,02,05,21,13,-3.60
2019,02,05,21,14,-3.60
2019,02,05,21,15,-3.60
2019,02,05,21,16,-3.60
2019,02,05,21,17,-3.60
2019,02,05,21,18,-3.60
2019,02,05,21,19,-3.60
2019,02,05,21,20,-3.60
2019,02,05,21,21,-3.60
2019,02,05,21,22,-3.60
2019,02,05,21,23,-3.60
2019,02,05,21,24,-3.70
2019,02,05,21,25,-3.70
2019,02,05,21,26,-3.70
2019,02,05,21,27,-3.70
2019,02,05,21,28,-3.70
2019,02,05,21,29,-3.70
2019,02,05,21,30,-3.70
2019,02,05,21,31,-3.80
2019,02,05,21,32,-3.80
2019,02,05,21,33,-3.80
2019,02,05,21,34,-3.80
2019,02,05,21,35,-3.80
2019,02,05,21,36,-3.80
2019,02,05,21,37,-3.80
2019,02,05,21,38,-3.80
2019,02,05,21,39,-3.80
2019,02,05,21,40,-3.80
2019,02,05,21,41,-3.80
2019,02,05,21,42,-3.90
2019,02,05,21,43,-3.90
2019,02,05,21,44,-3.90
2019,02,05,21,45,-3.90
2019,02,05,21,46,-3.90
2019,02,05,21,47,-3.90
2019,02,05,21,48,-3.90
2019,02,05,21,49,-3.90
2019,02,05,21,50,-3.90
2019,02,05,21,51,-3.90
2019,02,05,21,52,-4.00
2019,02,05,21,53,-4.00
2019,02,05,21,54,-4.00
2019,02,05,21,55,-4.00
2019,02,05,21,56,-4.00
2019,02,05,21,57,-4.00
2019,02,05,21,58,-4.00
2019,02,05,21,59,-4.10
2019,02,05,22,00,-4.10
2019,02,05,22,01,-4.10
2019,02,05,22,02,-4.10
2019,02,05,22,03,-4.10
2019,02,05,22,04,-4.10
2019,02,05,22,05,-4.10
2019,02,05,22,06,-4.10
2019,02,05,22,07,-4.10
2019,02,05,22,08,-4.10
2019,02,05,22,09,-4.10
2019,02,05,22,10,-4.20
2019,02,05,22,11,-4.20
2019,02,05,22,12,-4.20
2019,02,05,22,13,-4.20
2019,02,05,22,14,-4.20
2019,02,05,22,15,-4.20
2019,02,05,22,16,-4.20
2019,02,05,22,17,-4.20
2019,02,05,22,18,-4.20
2019,02,05,22,19,-4.20
2019,02,05,22,20,-4.20
2019,02,05,22,21,-4.20
2019,02,05,22,22,-4.30
2019,02,05,22,23,-4.20
2019,02,05,22,24,-4.30
2019,02,05,22,25,-4.20
2019,02,05,22,26,-4.30
2019,02,05,22,27,-4.30
2019,02,05,22,28,-4.30
2019,02,05,22,29,-4.30
2019,02,05,22,30,-4.30
2019,02,05,22,31,-4.30
2019,02,05,22,32,-4.30
2019,02,05,22,33,-4.30
2019,02,05,22,34,-4.30
2019,02,05,22,35,-4.30
2019,02,05,22,36,-4.30
2019,02,05,22,37,-4.30
2019,02,05,22,38,-4.30
2019,02,05,22,39,-4.30
2019,02,05,22,40,-4.30
2019,02,05,22,41,-4.30
2019,02,05,22,42,-4.30
2019,02,05,22,43,-4.30
2019,02,05,22,44,-4.40
2019,02,05,22,45,-4.40
2019,02,05,22,46,-4.40
2019,02,05,22,47,-4.40
2019,02,05,22,48,-4.50
2019,02,05,22,49,-4.50
2019,02,05,22,50,-4.50
2019,02,05,22,51,-4.60
2019,02,05,22,52,-4.60
2019,02,05,22,53,-4.60
2019,02,05,22,54,-4.60
2019,02,05,22,55,-4.60
2019,02,05,22,56,-4.60
2019,02,05,22,57,-4.60
2019,02,05,22,58,-4.60
2019,02,05,22,59,-4.60
2019,02,05,23,00,-4.60
2019,02,05,23,01,-4.70
2019,02,05,23,02,-4.70
2019,02,05,23,03,-4.70
2019,02,05,23,04,-4.70
2019,02,05,23,05,-4.70
2019,02,05,23,06,-4.70
2019,02,05,23,07,-4.70
2019,02,05,23,08,-4.70
2019,02,05,23,09,-4.70
2019,02,05,23,10,-4.80
2019,02,05,23,11,-4.80
2019,02,05,23,12,-4.80
2019,02,05,23,13,-4.80
2019,02,05,23,14,-4.80
2019,02,05,23,15,-4.80
2019,02,05,23,16,-4.80
2019,02,05,23,17,-4.80
2019,02,05,23,18,-4.80
2019,02,05,23,19,-4.80
2019,02,05,23,20,-4.80
2019,02,05,23,21,-4.80
2019,02,05,23,22,-4.80
2019,02,05,23,23,-4.80
2019,02,05,23,24,-4.80
2019,02,05,23,25,-4.80
2019,02,05,23,26,-4.80
2019,02,05,23,27,-4.80
2019,02,05,23,28,-4.80
2019,02,05,23,29,-4.80
2019,02,05,23,30,-4.80
2019,02,05,23,31,-4.80
2019,02,05,23,32,-4.80
2019,02,05,23,33,-4.80
2019,02,05,23,34,-4.80
2019,02,05,23,35,-4.80
2019,02,05,23,36,-4.80
2019,02,05,23,37,-4.80
2019,02,05,23,38,-4.80
2019,02,05,23,39,-4.80
2019,02,05,23,40,-4.80
2019,02,05,23,41,-4.80
2019,02,05,23,42,-4.80
2019,02,05,23,43,-4.80
2019,02,05,23,44,-4.80
2019,02,05,23,45,-4.80
2019,02,05,23,46,-4.80
2019,02,05,23,47,-4.80
2019,02,05,23,48,-4.80
2019,02,05,23,49,-4.80
2019,02,05,23,50,-4.80
2019,02,05,23,51,-4.80
2019,02,05,23,52,-4.80
2019,02,05,23,53,-4.80
2019,02,05,23,54,-4.80
2019,02,05,23,55,-4.80
2019,02,05,23,56,-4.80
2019,02,05,23,57,-4.80
2019,02,05,23,58,-4.90
2019,02,05,23,59,-4.90
